Find Menut

NORAD ID: 55010 Int'l Des: 2023-001 Owner: OCOSB/IEEC Country: E operational
LEOCIRCULARRETROGRADESSO

Current View

Loading 3D Globe...

About Menut

Description loading...

Upcoming Passes

Passes for default location (London). Set your location on the main map for personalized predictions.

Altitude History

Loading altitude history...

Two-Line Element Set

1 55010U 23001B 26150.82755920 .00074330 00000-0 98842-3 0 9990
2 55010 97.3157 218.2471 0005948 163.4124 196.7328 15.57922615189699
Epoch: May 30, 2026 • Age: 6 hours

Current Status

Altitude 419.0 km
Velocity 7.66 km/s
Sub-Earth Point -57.55°S, 45.17°W
Launch Date Jan 3, 2023
Age 3.4 years
Type other

Technical Details

Classification Payload
Mass 10.00 kg
Dry Mass 10.00 kg
Total Mass 10.00 kg
Length 0.30 m
Diameter 0.20 m
Span 0.30 m
Shape Box+ 2 pan
Manufacturer OCOSB
Bus Type Cubesat 6U
Phase Status In Orbit
Owner/State OCOSB/IEEC/E

Most Searched